Year,Month,Day,Hour,Minute,Value (Times are PST for temperature in C)
2017,06,20,07,52,16.40
2017,06,20,07,53,16.40
2017,06,20,07,54,16.40
2017,06,20,07,55,16.40
2017,06,20,07,56,16.40
2017,06,20,07,57,16.40
2017,06,20,07,58,16.40
2017,06,20,07,59,16.50
2017,06,20,08,00,16.60
2017,06,20,08,01,16.60
2017,06,20,08,02,16.70
2017,06,20,08,03,16.70
2017,06,20,08,04,16.70
2017,06,20,08,05,16.70
2017,06,20,08,06,16.80
2017,06,20,08,07,16.80
2017,06,20,08,08,16.80
2017,06,20,08,09,16.80
2017,06,20,08,10,16.70
2017,06,20,08,11,16.70
2017,06,20,08,12,16.60
2017,06,20,08,13,16.60
2017,06,20,08,14,16.50
2017,06,20,08,15,16.40
2017,06,20,08,16,16.40
2017,06,20,08,17,16.40
2017,06,20,08,18,16.60
2017,06,20,08,19,16.60
2017,06,20,08,20,16.50
2017,06,20,08,21,16.40
2017,06,20,08,22,16.40
2017,06,20,08,23,16.40
2017,06,20,08,24,16.40
2017,06,20,08,25,16.50
2017,06,20,08,26,16.60
2017,06,20,08,27,16.60
2017,06,20,08,28,16.70
2017,06,20,08,29,16.70
2017,06,20,08,30,16.70
2017,06,20,08,31,16.70
2017,06,20,08,32,16.70
2017,06,20,08,33,16.70
2017,06,20,08,34,16.70
2017,06,20,08,35,16.70
2017,06,20,08,36,16.70
2017,06,20,08,37,16.70
2017,06,20,08,38,16.70
2017,06,20,08,39,16.70
2017,06,20,08,40,16.60
2017,06,20,08,41,16.50
2017,06,20,08,42,16.40
2017,06,20,08,43,16.20
2017,06,20,08,44,16.10
2017,06,20,08,45,16.10
2017,06,20,08,46,16.10
2017,06,20,08,47,16.10
2017,06,20,08,48,16.10
2017,06,20,08,49,16.10
2017,06,20,08,50,16.10
2017,06,20,08,51,16.10
2017,06,20,08,52,16.10
2017,06,20,08,53,16.10
2017,06,20,08,54,16.10
2017,06,20,08,55,16.10
2017,06,20,08,56,16.10
2017,06,20,08,57,16.20
2017,06,20,08,58,16.20
2017,06,20,08,59,16.20
2017,06,20,09,00,16.20
2017,06,20,09,01,16.30
2017,06,20,09,02,16.30
2017,06,20,09,03,16.30
2017,06,20,09,04,16.40
2017,06,20,09,05,16.40
2017,06,20,09,06,16.40
2017,06,20,09,07,16.40
2017,06,20,09,08,16.50
2017,06,20,09,09,16.60
2017,06,20,09,10,16.60
2017,06,20,09,11,16.70
2017,06,20,09,12,16.70
2017,06,20,09,13,16.80
2017,06,20,09,14,16.90
2017,06,20,09,15,17.00
2017,06,20,09,16,17.00
2017,06,20,09,17,17.10
2017,06,20,09,18,17.10
2017,06,20,09,19,17.20
2017,06,20,09,20,17.20
2017,06,20,09,21,17.30
2017,06,20,09,22,17.30
2017,06,20,09,23,17.40
2017,06,20,09,24,17.50
2017,06,20,09,25,17.60
2017,06,20,09,26,17.80
2017,06,20,09,27,18.00
2017,06,20,09,28,18.20
2017,06,20,09,29,18.40
2017,06,20,09,30,18.60
2017,06,20,09,31,18.80
2017,06,20,09,32,19.00
2017,06,20,09,33,19.10
2017,06,20,09,34,19.30
2017,06,20,09,35,19.40
2017,06,20,09,36,19.50
2017,06,20,09,37,19.60
2017,06,20,09,38,19.70
2017,06,20,09,39,19.80
2017,06,20,09,40,19.80
2017,06,20,09,41,19.90
2017,06,20,09,42,20.00
2017,06,20,09,43,20.10
2017,06,20,09,44,20.10
2017,06,20,09,45,20.20
2017,06,20,09,46,20.20
2017,06,20,09,47,20.30
2017,06,20,09,48,20.40
2017,06,20,09,49,20.40
2017,06,20,09,50,20.50
2017,06,20,09,51,20.70
2017,06,20,09,52,20.70
2017,06,20,09,53,20.80
2017,06,20,09,54,20.90
2017,06,20,09,55,21.00
2017,06,20,09,56,20.90
2017,06,20,09,57,20.90
2017,06,20,09,58,20.90
2017,06,20,09,59,20.80
2017,06,20,10,00,20.80
2017,06,20,10,01,20.70
2017,06,20,10,02,20.70
2017,06,20,10,03,20.60
2017,06,20,10,04,20.50
2017,06,20,10,05,20.50
2017,06,20,10,06,20.40
2017,06,20,10,07,20.40
2017,06,20,10,08,20.40
2017,06,20,10,09,20.20
2017,06,20,10,10,20.20
2017,06,20,10,11,20.10
2017,06,20,10,12,20.00
2017,06,20,10,13,19.90
2017,06,20,10,14,19.90
2017,06,20,10,15,19.90
2017,06,20,10,16,19.90
2017,06,20,10,17,19.90
2017,06,20,10,18,19.80
2017,06,20,10,19,19.80
2017,06,20,10,20,19.80
2017,06,20,10,21,19.80
2017,06,20,10,22,19.80
2017,06,20,10,23,19.80
2017,06,20,10,24,19.80
2017,06,20,10,25,19.80
2017,06,20,10,26,19.90
2017,06,20,10,27,19.90
2017,06,20,10,28,19.90
2017,06,20,10,29,20.10
2017,06,20,10,30,20.10
2017,06,20,10,31,20.10
2017,06,20,10,32,20.20
2017,06,20,10,33,20.20
2017,06,20,10,34,20.30
2017,06,20,10,35,20.30
2017,06,20,10,36,20.40
2017,06,20,10,37,20.50
2017,06,20,10,38,20.50
2017,06,20,10,39,20.50
2017,06,20,10,40,20.50
2017,06,20,10,41,20.50
2017,06,20,10,42,20.50
2017,06,20,10,43,20.50
2017,06,20,10,44,20.50
2017,06,20,10,45,20.50
2017,06,20,10,46,20.40
2017,06,20,10,47,20.40
2017,06,20,10,48,20.30
2017,06,20,10,49,20.20
2017,06,20,10,50,20.20
2017,06,20,10,51,20.10
2017,06,20,10,52,20.00
2017,06,20,10,53,19.90
2017,06,20,10,54,19.90
2017,06,20,10,55,19.90
2017,06,20,10,56,19.90
2017,06,20,10,57,19.80
2017,06,20,10,58,19.80
2017,06,20,10,59,19.70
2017,06,20,11,00,19.70
2017,06,20,11,01,19.70
2017,06,20,11,02,19.70
2017,06,20,11,03,19.70
2017,06,20,11,04,19.70
2017,06,20,11,05,19.70
2017,06,20,11,06,19.70
2017,06,20,11,07,19.70
2017,06,20,11,08,19.70
2017,06,20,11,09,19.70
2017,06,20,11,10,19.80
2017,06,20,11,11,19.80
2017,06,20,11,12,19.80
2017,06,20,11,13,19.80
2017,06,20,11,14,19.90
2017,06,20,11,15,19.90
2017,06,20,11,16,19.90
2017,06,20,11,17,19.90
2017,06,20,11,18,19.90
2017,06,20,11,19,19.90
2017,06,20,11,20,19.90
2017,06,20,11,21,19.90
2017,06,20,11,22,19.90
2017,06,20,11,23,19.90
2017,06,20,11,24,19.80
2017,06,20,11,25,19.70
2017,06,20,11,26,19.70
2017,06,20,11,27,19.70
2017,06,20,11,28,19.80
2017,06,20,11,29,19.80
2017,06,20,11,30,19.70
2017,06,20,11,31,19.60
2017,06,20,11,32,19.40
2017,06,20,11,33,19.30
2017,06,20,11,34,19.10
2017,06,20,11,35,19.10
2017,06,20,11,36,19.10
2017,06,20,11,37,19.10
2017,06,20,11,38,19.10
2017,06,20,11,39,19.10
2017,06,20,11,40,19.10
2017,06,20,11,41,19.00
2017,06,20,11,42,18.90
2017,06,20,11,43,18.80
2017,06,20,11,44,18.70
2017,06,20,11,45,18.70
2017,06,20,11,46,18.60
2017,06,20,11,47,18.50
2017,06,20,11,48,18.50
2017,06,20,11,49,18.40
2017,06,20,11,50,18.40
2017,06,20,11,51,18.40
2017,06,20,11,52,18.40
2017,06,20,11,53,18.40
2017,06,20,11,54,18.30
2017,06,20,11,55,18.30
2017,06,20,11,56,18.20
2017,06,20,11,57,18.20
2017,06,20,11,58,18.20
2017,06,20,11,59,18.20
2017,06,20,12,00,18.30
2017,06,20,12,01,18.30
2017,06,20,12,02,18.30
2017,06,20,12,03,18.30
2017,06,20,12,04,18.30
2017,06,20,12,05,18.30
2017,06,20,12,06,18.30
2017,06,20,12,07,18.40
2017,06,20,12,08,18.40
2017,06,20,12,09,18.50
2017,06,20,12,10,18.50
2017,06,20,12,11,18.50
2017,06,20,12,12,18.50
2017,06,20,12,13,18.50
2017,06,20,12,14,18.50
2017,06,20,12,15,18.60
2017,06,20,12,16,18.60
2017,06,20,12,17,18.60
2017,06,20,12,18,18.70
2017,06,20,12,19,18.70
2017,06,20,12,20,18.80
2017,06,20,12,21,18.90
2017,06,20,12,22,18.90
2017,06,20,12,23,18.90
2017,06,20,12,24,18.90
2017,06,20,12,25,19.00
2017,06,20,12,26,19.10
2017,06,20,12,27,19.10
2017,06,20,12,28,19.10
2017,06,20,12,29,19.10
2017,06,20,12,30,19.10
2017,06,20,12,31,19.00
2017,06,20,12,32,18.90
2017,06,20,12,33,18.90
2017,06,20,12,34,18.90
2017,06,20,12,35,18.90
2017,06,20,12,36,18.90
2017,06,20,12,37,18.90
2017,06,20,12,38,18.90
2017,06,20,12,39,18.90
2017,06,20,12,40,18.90
2017,06,20,12,41,18.90
2017,06,20,12,42,18.90
2017,06,20,12,43,18.90
2017,06,20,12,44,18.80
2017,06,20,12,45,18.80
2017,06,20,12,46,18.80
2017,06,20,12,47,18.80
2017,06,20,12,48,18.80
2017,06,20,12,49,18.90
2017,06,20,12,50,18.90
2017,06,20,12,51,19.10
2017,06,20,12,52,19.10
2017,06,20,12,53,19.10
2017,06,20,12,54,19.10
2017,06,20,12,55,19.10
2017,06,20,12,56,19.20
2017,06,20,12,57,19.20
2017,06,20,12,58,19.30
2017,06,20,12,59,19.30
2017,06,20,13,00,19.30
2017,06,20,13,01,19.30
2017,06,20,13,02,19.30
2017,06,20,13,03,19.30
2017,06,20,13,04,19.30
2017,06,20,13,05,19.30
2017,06,20,13,06,19.20
2017,06,20,13,07,19.10
2017,06,20,13,08,19.10
2017,06,20,13,09,19.00
2017,06,20,13,10,18.90
2017,06,20,13,11,18.90
2017,06,20,13,12,18.90
2017,06,20,13,13,18.90
2017,06,20,13,14,18.90
2017,06,20,13,15,18.90
2017,06,20,13,16,18.90
2017,06,20,13,17,18.90
2017,06,20,13,18,18.90
2017,06,20,13,19,18.90
2017,06,20,13,20,19.10
2017,06,20,13,21,19.10
2017,06,20,13,22,19.10
2017,06,20,13,23,19.10
2017,06,20,13,24,19.10
2017,06,20,13,25,19.00
2017,06,20,13,26,18.90
2017,06,20,13,27,18.90
2017,06,20,13,28,18.90
2017,06,20,13,29,18.80
2017,06,20,13,30,18.80
2017,06,20,13,31,18.90
2017,06,20,13,32,19.00
2017,06,20,13,33,19.10
2017,06,20,13,34,19.10
2017,06,20,13,35,19.10
2017,06,20,13,36,19.00
2017,06,20,13,37,18.90
2017,06,20,13,38,18.90
2017,06,20,13,39,18.90
2017,06,20,13,40,18.90
2017,06,20,13,41,18.80
2017,06,20,13,42,18.80
2017,06,20,13,43,18.80
2017,06,20,13,44,18.70
2017,06,20,13,45,18.70
2017,06,20,13,46,18.60
2017,06,20,13,47,18.60
2017,06,20,13,48,18.60
2017,06,20,13,49,18.60
2017,06,20,13,50,18.60
2017,06,20,13,51,18.50
2017,06,20,13,52,18.50
2017,06,20,13,53,18.50
2017,06,20,13,54,18.50
2017,06,20,13,55,18.60
2017,06,20,13,56,18.60
2017,06,20,13,57,18.70
2017,06,20,13,58,18.60
2017,06,20,13,59,18.70
2017,06,20,14,00,18.80
2017,06,20,14,01,18.80
2017,06,20,14,02,18.80
2017,06,20,14,03,18.80
2017,06,20,14,04,18.80
2017,06,20,14,05,18.70
2017,06,20,14,06,18.70
2017,06,20,14,07,18.60
2017,06,20,14,08,18.50
2017,06,20,14,09,18.50
2017,06,20,14,10,18.40
2017,06,20,14,11,18.40
2017,06,20,14,12,18.30
2017,06,20,14,13,18.30
2017,06,20,14,14,18.30
2017,06,20,14,15,18.20
2017,06,20,14,16,18.20
2017,06,20,14,17,18.20
2017,06,20,14,18,18.20
2017,06,20,14,19,18.20
2017,06,20,14,20,18.20
2017,06,20,14,21,18.20
2017,06,20,14,22,18.20
2017,06,20,14,23,18.20
2017,06,20,14,24,18.20
2017,06,20,14,25,18.20
2017,06,20,14,26,18.20
2017,06,20,14,27,18.20
2017,06,20,14,28,18.10
2017,06,20,14,29,18.10
2017,06,20,14,30,18.10
2017,06,20,14,31,18.00
2017,06,20,14,32,17.90
2017,06,20,14,33,17.90
2017,06,20,14,34,17.90
2017,06,20,14,35,17.90
2017,06,20,14,36,17.80
2017,06,20,14,37,17.80
2017,06,20,14,38,17.80
2017,06,20,14,39,17.70
2017,06,20,14,40,17.70
2017,06,20,14,41,17.60
2017,06,20,14,42,17.60
2017,06,20,14,43,17.60
2017,06,20,14,44,17.50
2017,06,20,14,45,17.50
2017,06,20,14,46,17.30
2017,06,20,14,47,17.30
2017,06,20,14,48,17.30
2017,06,20,14,49,17.30
2017,06,20,14,50,17.30
2017,06,20,14,51,17.40
2017,06,20,14,52,17.50
2017,06,20,14,53,17.50
2017,06,20,14,54,17.40
2017,06,20,14,55,17.40
2017,06,20,14,56,17.30
2017,06,20,14,57,17.30
2017,06,20,14,58,17.30
2017,06,20,14,59,17.20
2017,06,20,15,00,17.10
2017,06,20,15,01,17.10
2017,06,20,15,02,17.00
2017,06,20,15,03,17.00
2017,06,20,15,04,17.10
2017,06,20,15,05,17.10
2017,06,20,15,06,17.20
2017,06,20,15,07,17.20
2017,06,20,15,08,17.20
2017,06,20,15,09,17.30
2017,06,20,15,10,17.30
2017,06,20,15,11,17.30
2017,06,20,15,12,17.30
2017,06,20,15,13,17.30
2017,06,20,15,14,17.40
2017,06,20,15,15,17.40
2017,06,20,15,16,17.40
2017,06,20,15,17,17.50
2017,06,20,15,18,17.50
2017,06,20,15,19,17.60
2017,06,20,15,20,17.60
2017,06,20,15,21,17.50
2017,06,20,15,22,17.50
2017,06,20,15,23,17.50
2017,06,20,15,24,17.40
2017,06,20,15,25,17.30
2017,06,20,15,26,17.30
2017,06,20,15,27,17.30
2017,06,20,15,28,17.30
2017,06,20,15,29,17.30
2017,06,20,15,30,17.20
2017,06,20,15,31,17.10
2017,06,20,15,32,17.10
2017,06,20,15,33,17.00
2017,06,20,15,34,17.10
2017,06,20,15,35,17.10
2017,06,20,15,36,17.10
2017,06,20,15,37,17.10
2017,06,20,15,38,17.10
2017,06,20,15,39,17.00
2017,06,20,15,40,17.10
2017,06,20,15,41,17.10
2017,06,20,15,42,17.10
2017,06,20,15,43,17.20
2017,06,20,15,44,17.20
2017,06,20,15,45,17.20
2017,06,20,15,46,17.20
2017,06,20,15,47,17.20
2017,06,20,15,48,17.10
2017,06,20,15,49,17.10
2017,06,20,15,50,17.10
2017,06,20,15,51,17.10
2017,06,20,15,52,17.10
2017,06,20,15,53,17.10
2017,06,20,15,54,17.20
2017,06,20,15,55,17.20
2017,06,20,15,56,17.20
2017,06,20,15,57,17.20
2017,06,20,15,58,17.30
2017,06,20,15,59,17.30
2017,06,20,16,00,17.30
2017,06,20,16,01,17.30
2017,06,20,16,02,17.40
2017,06,20,16,03,17.50
2017,06,20,16,04,17.50
2017,06,20,16,05,17.60
2017,06,20,16,06,17.70
2017,06,20,16,07,17.70
2017,06,20,16,08,17.80
2017,06,20,16,09,17.80
2017,06,20,16,10,17.80
2017,06,20,16,11,17.80
2017,06,20,16,12,17.80
2017,06,20,16,13,17.90
2017,06,20,16,14,17.90
2017,06,20,16,15,17.90
2017,06,20,16,16,18.00
2017,06,20,16,17,18.10
2017,06,20,16,18,18.20
2017,06,20,16,19,18.20
2017,06,20,16,20,18.20
2017,06,20,16,21,18.20
2017,06,20,16,22,18.20
2017,06,20,16,23,18.20
2017,06,20,16,24,18.20
2017,06,20,16,25,18.20
2017,06,20,16,26,18.20
2017,06,20,16,27,18.20
2017,06,20,16,28,18.20
2017,06,20,16,29,18.20
2017,06,20,16,30,18.30
2017,06,20,16,31,18.40
2017,06,20,16,32,18.40
2017,06,20,16,33,18.40
2017,06,20,16,34,18.40
2017,06,20,16,35,18.40
2017,06,20,16,36,18.50
2017,06,20,16,37,18.50
2017,06,20,16,38,18.40
2017,06,20,16,39,18.40
2017,06,20,16,40,18.40
2017,06,20,16,41,18.40
2017,06,20,16,42,18.40
2017,06,20,16,43,18.30
2017,06,20,16,44,18.30
2017,06,20,16,45,18.20
2017,06,20,16,46,18.20
2017,06,20,16,47,18.20
2017,06,20,16,48,18.20
2017,06,20,16,49,18.20
2017,06,20,16,50,18.10
2017,06,20,16,51,18.10
2017,06,20,16,52,18.10
2017,06,20,16,53,18.10
2017,06,20,16,54,18.00
2017,06,20,16,55,17.90
2017,06,20,16,56,17.90
2017,06,20,16,57,17.90
2017,06,20,16,58,17.90
2017,06,20,16,59,17.90
2017,06,20,17,00,17.80
2017,06,20,17,01,17.80
2017,06,20,17,02,17.80
2017,06,20,17,03,17.80
2017,06,20,17,04,17.90
2017,06,20,17,05,17.90
2017,06,20,17,06,17.90
2017,06,20,17,07,18.00
2017,06,20,17,08,18.10
2017,06,20,17,09,18.10
2017,06,20,17,10,18.10
2017,06,20,17,11,18.10
2017,06,20,17,12,18.10
2017,06,20,17,13,18.00
2017,06,20,17,14,17.90
2017,06,20,17,15,18.00
2017,06,20,17,16,18.00
2017,06,20,17,17,18.10
2017,06,20,17,18,18.20
2017,06,20,17,19,18.20
2017,06,20,17,20,18.20
2017,06,20,17,21,18.10
2017,06,20,17,22,18.10
2017,06,20,17,23,18.20
2017,06,20,17,24,18.20
2017,06,20,17,25,18.10
2017,06,20,17,26,17.90
2017,06,20,17,27,17.90
2017,06,20,17,28,17.90
2017,06,20,17,29,17.90
2017,06,20,17,30,17.90
2017,06,20,17,31,17.80
2017,06,20,17,32,17.80
2017,06,20,17,33,17.70
2017,06,20,17,34,17.70
2017,06,20,17,35,17.70
2017,06,20,17,36,17.70
2017,06,20,17,37,17.60
2017,06,20,17,38,17.60
2017,06,20,17,39,17.50
2017,06,20,17,40,17.50
2017,06,20,17,41,17.50
2017,06,20,17,42,17.50
2017,06,20,17,43,17.50
2017,06,20,17,44,17.50
2017,06,20,17,45,17.40
2017,06,20,17,46,17.50
2017,06,20,17,47,17.50
2017,06,20,17,48,17.50
2017,06,20,17,49,17.50
2017,06,20,17,50,17.50
2017,06,20,17,51,17.50
2017,06,20,17,52,17.40
2017,06,20,17,53,17.40
2017,06,20,17,54,17.40
2017,06,20,17,55,17.50
2017,06,20,17,56,17.50
2017,06,20,17,57,17.50
2017,06,20,17,58,17.50
2017,06,20,17,59,17.50
2017,06,20,18,00,17.50
2017,06,20,18,01,17.50
2017,06,20,18,02,17.50
2017,06,20,18,03,17.40
2017,06,20,18,04,17.40
2017,06,20,18,05,17.40
2017,06,20,18,06,17.40
2017,06,20,18,07,17.40
2017,06,20,18,08,17.40
2017,06,20,18,09,17.40
2017,06,20,18,10,17.50
2017,06,20,18,11,17.40
2017,06,20,18,12,17.40
2017,06,20,18,13,17.40
2017,06,20,18,14,17.40
2017,06,20,18,15,17.30
2017,06,20,18,16,17.30
2017,06,20,18,17,17.30
2017,06,20,18,18,17.30
2017,06,20,18,19,17.30
2017,06,20,18,20,17.30
2017,06,20,18,21,17.20
2017,06,20,18,22,17.00
2017,06,20,18,23,17.00
2017,06,20,18,24,16.90
2017,06,20,18,25,16.80
2017,06,20,18,26,16.80
2017,06,20,18,27,16.80
2017,06,20,18,28,16.80
2017,06,20,18,29,16.80
2017,06,20,18,30,16.80
2017,06,20,18,31,16.80
2017,06,20,18,32,16.80
2017,06,20,18,33,16.80
2017,06,20,18,34,16.80
2017,06,20,18,35,16.80
2017,06,20,18,36,16.80
2017,06,20,18,37,16.80
2017,06,20,18,38,16.70
2017,06,20,18,39,16.70
2017,06,20,18,40,16.70
2017,06,20,18,41,16.70
2017,06,20,18,42,16.60
2017,06,20,18,43,16.60
2017,06,20,18,44,16.50
2017,06,20,18,45,16.40
2017,06,20,18,46,16.40
2017,06,20,18,47,16.40
2017,06,20,18,48,16.40
2017,06,20,18,49,16.40
2017,06,20,18,50,16.30
2017,06,20,18,51,16.40
2017,06,20,18,52,16.40
2017,06,20,18,53,16.30
2017,06,20,18,54,16.30
2017,06,20,18,55,16.30
2017,06,20,18,56,16.30
2017,06,20,18,57,16.30
2017,06,20,18,58,16.30
2017,06,20,18,59,16.20
2017,06,20,19,00,16.10
2017,06,20,19,01,16.00
2017,06,20,19,02,15.90
2017,06,20,19,03,15.80
2017,06,20,19,04,15.80
2017,06,20,19,05,15.70
2017,06,20,19,06,15.60
2017,06,20,19,07,15.60
2017,06,20,19,08,15.50
2017,06,20,19,09,15.50
2017,06,20,19,10,15.50
2017,06,20,19,11,15.50
2017,06,20,19,12,15.40
2017,06,20,19,13,15.30
2017,06,20,19,14,15.30
2017,06,20,19,15,15.30
2017,06,20,19,16,15.30
2017,06,20,19,17,15.20
2017,06,20,19,18,15.20
2017,06,20,19,19,15.20
2017,06,20,19,20,15.10
2017,06,20,19,21,15.10
2017,06,20,19,22,15.10
2017,06,20,19,23,15.10
2017,06,20,19,24,15.00
2017,06,20,19,25,15.00
2017,06,20,19,26,15.00
2017,06,20,19,27,14.90
2017,06,20,19,28,14.80
2017,06,20,19,29,14.80
2017,06,20,19,30,14.80
2017,06,20,19,31,14.80
2017,06,20,19,32,14.80
2017,06,20,19,33,14.80
2017,06,20,19,34,14.80
2017,06,20,19,35,14.80
2017,06,20,19,36,14.80
2017,06,20,19,37,14.70
2017,06,20,19,38,14.70
2017,06,20,19,39,14.70
2017,06,20,19,40,14.80
2017,06,20,19,41,14.80
2017,06,20,19,42,14.80
2017,06,20,19,43,14.70
2017,06,20,19,44,14.70
2017,06,20,19,45,14.70
2017,06,20,19,46,14.70
2017,06,20,19,47,14.60
2017,06,20,19,48,14.60
2017,06,20,19,49,14.70
2017,06,20,19,50,14.70
2017,06,20,19,51,14.70
2017,06,20,19,52,14.70
2017,06,20,19,53,14.70
2017,06,20,19,54,14.60
2017,06,20,19,55,14.60
2017,06,20,19,56,14.50
2017,06,20,19,57,14.50
2017,06,20,19,58,14.40
2017,06,20,19,59,14.40
2017,06,20,20,00,14.40
2017,06,20,20,01,14.30
2017,06,20,20,02,14.30
2017,06,20,20,03,14.20
2017,06,20,20,04,14.20
2017,06,20,20,05,14.20
2017,06,20,20,06,14.20
2017,06,20,20,07,14.20
2017,06,20,20,08,14.20
2017,06,20,20,09,14.20
2017,06,20,20,10,14.20
2017,06,20,20,11,14.20
2017,06,20,20,12,14.20
2017,06,20,20,13,14.20
2017,06,20,20,14,14.10
2017,06,20,20,15,14.10
2017,06,20,20,16,14.10
2017,06,20,20,17,14.00
2017,06,20,20,18,14.00
2017,06,20,20,19,14.00
2017,06,20,20,20,14.00
2017,06,20,20,21,14.00
2017,06,20,20,22,14.00
2017,06,20,20,23,14.00
2017,06,20,20,24,14.00
2017,06,20,20,25,13.90
2017,06,20,20,26,13.90
2017,06,20,20,27,13.90
2017,06,20,20,28,13.90
2017,06,20,20,29,13.80
2017,06,20,20,30,13.80
2017,06,20,20,31,13.80
2017,06,20,20,32,13.80
2017,06,20,20,33,13.70
2017,06,20,20,34,13.70
2017,06,20,20,35,13.70
2017,06,20,20,36,13.70
2017,06,20,20,37,13.70
2017,06,20,20,38,13.70
2017,06,20,20,39,13.70
2017,06,20,20,40,13.70
2017,06,20,20,41,13.70
2017,06,20,20,42,13.70
2017,06,20,20,43,13.70
2017,06,20,20,44,13.60
2017,06,20,20,45,13.60
2017,06,20,20,46,13.60
2017,06,20,20,47,13.60
2017,06,20,20,48,13.60
2017,06,20,20,49,13.60
2017,06,20,20,50,13.60
2017,06,20,20,51,13.60
2017,06,20,20,52,13.60
2017,06,20,20,53,13.60
2017,06,20,20,54,13.50
2017,06,20,20,55,13.50
2017,06,20,20,56,13.50
2017,06,20,20,57,13.50
2017,06,20,20,58,13.40
2017,06,20,20,59,13.50
2017,06,20,21,00,13.40
2017,06,20,21,01,13.40
2017,06,20,21,02,13.40
2017,06,20,21,03,13.40
2017,06,20,21,04,13.40
2017,06,20,21,05,13.40
2017,06,20,21,06,13.40
2017,06,20,21,07,13.40
2017,06,20,21,08,13.40
2017,06,20,21,09,13.30
2017,06,20,21,10,13.30
2017,06,20,21,11,13.30
2017,06,20,21,12,13.30
2017,06,20,21,13,13.30
2017,06,20,21,14,13.30
2017,06,20,21,15,13.30
2017,06,20,21,16,13.30
2017,06,20,21,17,13.30
2017,06,20,21,18,13.30
2017,06,20,21,19,13.30
